�������l�o���
Date,Time,MP-1(��Sv/h),MP-2(��Sv/h),MP-3(��Sv/h),MP-4(��Sv/h),MP-5(��Sv/h),MP-6(��Sv/h),MP-7(��Sv/h),MP-8(��Sv/h),����,����(m/s),���J
2022/06/03,00:00,0.554,0.806,0.523,0.981,0.696,0.340,0.583,0.553,��,2.6,��
2022/06/03,00:10,0.555,0.806,0.522,0.981,0.696,0.341,0.584,0.554,��,2.6,��
2022/06/03,00:20,0.556,0.806,0.523,0.982,0.696,0.341,0.584,0.553,�쐼,2.2,��
2022/06/03,00:30,0.556,0.805,0.523,0.982,0.696,0.340,0.584,0.552,�쐼,3.2,��
2022/06/03,00:40,0.556,0.805,0.522,0.983,0.694,0.342,0.586,0.555,�쐼,3.7,��
2022/06/03,00:50,0.554,0.807,0.523,0.984,0.698,0.340,0.585,0.554,�쐼,4.9,��
2022/06/03,01:00,0.555,0.807,0.524,0.983,0.696,0.341,0.586,0.554,�쐼,4.3,��
2022/06/03,01:10,0.555,0.807,0.524,0.984,0.697,0.342,0.585,0.555,�쐼,4.3,��
2022/06/03,01:20,0.556,0.807,0.525,0.983,0.697,0.341,0.587,0.555,���쐼,3.7,��
2022/06/03,01:30,0.555,0.807,0.523,0.984,0.696,0.340,0.588,0.553,���쐼,2.8,��
2022/06/03,01:40,0.556,0.809,0.525,0.983,0.699,0.341,0.586,0.554,�k��,3.4,��
2022/06/03,01:50,0.555,0.808,0.523,0.986,0.697,0.341,0.586,0.555,�k��,4.7,��
2022/06/03,02:00,0.556,0.807,0.525,0.985,0.697,0.340,0.587,0.553,�k�k��,3.5,��
2022/06/03,02:10,0.555,0.808,0.525,0.985,0.699,0.340,0.588,0.553,�k,3.5,��
2022/06/03,02:20,0.556,0.809,0.524,0.984,0.697,0.342,0.588,0.554,�k�k��,3.5,��
2022/06/03,02:30,0.556,0.808,0.524,0.985,0.696,0.341,0.588,0.554,�k�k��,3.8,��
2022/06/03,02:40,0.557,0.810,0.525,0.985,0.698,0.341,0.587,0.554,�k�k��,3.3,��
2022/06/03,02:50,0.558,0.806,0.524,0.985,0.699,0.339,0.587,0.556,�k�k��,2.6,��
2022/06/03,03:00,0.558,0.807,0.525,0.983,0.698,0.340,0.587,0.555,�k,2.6,��
2022/06/03,03:10,0.557,0.810,0.526,0.986,0.698,0.342,0.587,0.555,�k�k��,2.9,��
2022/06/03,03:20,0.558,0.808,0.525,0.984,0.700,0.341,0.587,0.554,�k,3.8,��
2022/06/03,03:30,0.557,0.808,0.525,0.984,0.699,0.342,0.587,0.555,�k�k��,4.0,��
2022/06/03,03:40,0.557,0.809,0.523,0.984,0.699,0.341,0.587,0.555,�k�k��,3.5,��
2022/06/03,03:50,0.556,0.807,0.525,0.985,0.699,0.342,0.588,0.554,�k,1.7,��
2022/06/03,04:00,0.556,0.810,0.523,0.985,0.698,0.342,0.586,0.554,�k,1.1,��
2022/06/03,04:10,0.556,0.810,0.526,0.987,0.699,0.340,0.588,0.554,�k,3.0,��
2022/06/03,04:20,0.555,0.808,0.524,0.984,0.699,0.341,0.587,0.554,�k,3.9,��
2022/06/03,04:30,0.553,0.808,0.523,0.987,0.699,0.340,0.587,0.555,�k,3.0,��
2022/06/03,04:40,0.555,0.807,0.526,0.986,0.698,0.339,0.587,0.555,�k,3.3,��
2022/06/03,04:50,0.556,0.808,0.525,0.986,0.698,0.340,0.587,0.554,�k,2.5,��
2022/06/03,05:00,0.557,0.807,0.524,0.986,0.697,0.340,0.588,0.554,�k,2.9,��
2022/06/03,05:10,0.554,0.809,0.524,0.986,0.698,0.340,0.588,0.555,�k�k��,3.8,��
2022/06/03,05:20,0.557,0.809,0.526,0.986,0.696,0.340,0.586,0.556,�k�k��,2.9,��
2022/06/03,05:30,0.555,0.807,0.524,0.986,0.698,0.340,0.586,0.555,�k�k��,2.2,��
2022/06/03,05:40,0.555,0.809,0.524,0.984,0.698,0.341,0.587,0.552,�k��,2.3,��
2022/06/03,05:50,0.556,0.809,0.524,0.986,0.697,0.339,0.586,0.555,�k��,1.7,��
2022/06/03,06:00,0.555,0.807,0.524,0.986,0.698,0.339,0.586,0.556,�k��,2.2,��
2022/06/03,06:10,0.557,0.809,0.525,0.988,0.698,0.341,0.587,0.554,�k�k��,2.8,��
2022/06/03,06:20,0.557,0.808,0.523,0.984,0.699,0.339,0.585,0.554,�k�k��,3.2,��
2022/06/03,06:30,0.555,0.808,0.525,0.987,0.701,0.341,0.587,0.553,�k�k��,4.4,��
2022/06/03,06:40,0.558,0.809,0.525,0.987,0.698,0.342,0.585,0.556,�k�k��,3.1,��
2022/06/03,06:50,0.557,0.811,0.524,0.986,0.698,0.340,0.586,0.553,�k�k��,2.8,��
2022/06/03,07:00,0.557,0.812,0.524,0.987,0.697,0.340,0.586,0.554,�k,2.2,��
2022/06/03,07:10,0.555,0.810,0.526,0.986,0.700,0.339,0.586,0.556,�k��,2.6,��
2022/06/03,07:20,0.557,0.809,0.525,0.988,0.698,0.339,0.586,0.554,�k�k��,2.0,��
2022/06/03,07:30,0.557,0.809,0.527,0.987,0.698,0.340,0.586,0.557,�k,1.2,��
2022/06/03,07:40,0.557,0.809,0.525,0.986,0.699,0.340,0.585,0.556,�k,2.0,��
2022/06/03,07:50,0.558,0.807,0.525,0.986,0.698,0.340,0.585,0.554,�k�k��,1.5,��
2022/06/03,08:00,0.559,0.809,0.525,0.989,0.699,0.341,0.588,0.554,�k�k��,1.7,��
2022/06/03,08:10,0.558,0.808,0.524,0.988,0.698,0.340,0.587,0.555,�k,1.9,��
2022/06/03,08:20,0.559,0.810,0.524,0.987,0.701,0.339,0.587,0.555,�k,2.3,��
2022/06/03,08:30,0.557,0.805,0.524,0.987,0.700,0.340,0.585,0.554,�k,3.7,��
2022/06/03,08:40,0.556,0.806,0.525,0.985,0.700,0.340,0.587,0.553,�k,2.5,��
2022/06/03,08:50,0.555,0.807,0.525,0.988,0.699,0.339,0.587,0.552,�k,2.2,��
2022/06/03,09:00,0.555,0.804,0.525,0.988,0.700,0.339,0.586,0.553,�k,2.9,��
2022/06/03,09:10,0.554,0.805,0.524,0.988,0.698,0.339,0.586,0.552,�k,3.4,��
2022/06/03,09:20,0.556,0.807,0.525,0.988,0.698,0.340,0.587,0.553,�k,3.4,��
2022/06/03,09:30,0.554,0.804,0.523,0.988,0.699,0.340,0.587,0.554,�k�k��,4.9,��
2022/06/03,09:40,0.555,0.809,0.526,0.988,0.698,0.339,0.587,0.553,�k�k��,4.5,��
2022/06/03,09:50,0.558,0.807,0.521,0.988,0.699,0.339,0.587,0.553,�k�k��,3.8,��
2022/06/03,10:00,0.556,0.809,0.528,0.990,0.698,0.339,0.588,0.553,�k�k��,4.2,��
2022/06/03,10:10,0.555,0.808,0.525,0.990,0.699,0.338,0.588,0.553,�k�k��,4.7,��
2022/06/03,10:20,0.552,0.806,0.526,0.988,0.698,0.339,0.586,0.555,�k�k��,5.0,��
2022/06/03,10:30,0.553,0.807,0.526,0.991,0.697,0.337,0.587,0.553,�k�k��,5.6,��
2022/06/03,10:40,0.557,-,0.525,0.989,0.699,0.339,0.590,0.554,�k�k��,5.4,��
2022/06/03,10:50,0.560,-,0.526,0.989,0.702,0.339,0.588,0.554,�k,4.3,��
2022/06/03,11:00,0.559,-,0.524,0.989,0.700,0.339,0.587,0.554,�k�k��,4.0,��
2022/06/03,11:10,0.560,-,0.524,0.992,0.700,0.340,0.587,0.555,�k�k��,3.1,��
2022/06/03,11:20,0.559,-,0.525,0.991,0.702,0.340,0.587,0.555,�k�k��,3.4,��
2022/06/03,11:30,0.558,-,0.526,0.989,0.702,0.339,0.586,0.555,�k��,1.2,��
2022/06/03,11:40,0.560,-,0.526,0.988,0.701,0.340,0.586,0.556,-,CALM,��
2022/06/03,11:50,0.559,-,0.526,0.990,0.702,0.340,0.588,0.555,�쓌,1.2,�L
2022/06/03,12:00,0.559,-,0.528,0.989,0.701,0.340,0.585,0.555,���쓌,0.9,�L
2022/06/03,12:10,0.561,-,0.527,0.990,0.704,0.341,0.589,0.556,��쓌,0.9,�L
2022/06/03,12:20,0.560,-,0.529,0.991,0.703,0.341,0.587,0.555,�k��,0.8,�L
2022/06/03,12:30,0.561,-,0.530,0.994,0.707,0.342,0.587,0.556,�k,0.8,�L
2022/06/03,12:40,0.561,-,0.530,0.991,0.704,0.342,0.588,0.555,���k��,1.2,�L
2022/06/03,12:50,0.562,-,0.531,0.994,0.704,0.340,0.589,0.556,��쐼,0.6,�L
2022/06/03,13:00,0.560,-,0.531,0.993,0.705,0.341,0.587,0.556,���k��,1.5,�L
2022/06/03,13:10,0.560,-,0.531,0.994,0.706,0.342,0.587,0.556,�k,5.1,�L
2022/06/03,13:20,0.561,-,0.532,0.994,0.706,0.342,0.587,0.555,�k,5.9,�L
2022/06/03,13:30,0.565,-,0.533,0.997,0.706,0.345,0.586,0.556,�k�k��,7.5,�L
2022/06/03,13:40,0.564,-,0.533,0.993,0.702,0.346,0.583,0.554,�k�k��,4.3,�L
2022/06/03,13:50,0.564,-,0.533,0.992,0.700,0.345,0.580,0.551,�k,3.0,�L
2022/06/03,14:00,0.561,-,0.531,0.992,0.697,0.345,0.582,0.550,�k�k��,1.5,��
2022/06/03,14:10,0.562,-,0.529,0.990,0.698,0.343,0.581,0.550,-,CALM,�L
2022/06/03,14:20,0.562,-,0.530,0.992,0.697,0.343,0.581,0.551,�k,0.8,�L
2022/06/03,14:30,0.561,-,0.533,0.992,0.698,0.343,0.580,0.551,���k��,1.7,�L
2022/06/03,14:40,0.565,-,0.534,0.992,0.698,0.346,0.583,0.552,�k�k��,1.2,�L
2022/06/03,14:50,0.563,-,0.535,0.991,0.703,0.346,0.581,0.550,-,CALM,�L
2022/06/03,15:00,0.562,-,0.532,0.991,0.701,0.347,0.580,0.552,��쐼,1.7,��
2022/06/03,15:10,0.562,-,0.532,0.990,0.700,0.346,0.580,0.551,��,1.7,��
2022/06/03,15:20,0.560,0.809,0.532,0.989,0.699,0.345,0.581,0.551,�k��,2.0,��
2022/06/03,15:30,0.561,0.810,0.530,0.987,0.699,0.343,0.583,0.551,�k��,3.2,�L
2022/06/03,15:40,0.560,0.810,0.526,0.989,0.698,0.340,0.581,0.550,���k��,2.6,�L
2022/06/03,15:50,0.557,0.806,0.527,0.988,0.696,0.340,0.580,0.552,���k��,2.8,��
2022/06/03,16:00,0.557,0.808,0.527,0.986,0.697,0.340,0.581,0.551,�k��,3.0,��
2022/06/03,16:10,0.558,0.809,0.524,0.987,0.695,0.338,0.581,0.552,���k��,2.5,��
2022/06/03,16:20,0.554,0.807,0.524,0.988,0.693,0.338,0.583,0.550,���k��,3.0,��
2022/06/03,16:30,0.555,0.806,0.525,0.986,0.694,0.338,0.580,0.550,���k��,3.1,��
2022/06/03,16:40,0.555,0.806,0.522,0.985,0.695,0.339,0.582,0.549,���k��,3.3,��
2022/06/03,16:50,0.552,0.804,0.524,0.982,0.695,0.338,0.583,0.549,���k��,5.4,��
2022/06/03,17:00,0.554,0.806,0.524,0.983,0.695,0.337,0.581,0.550,���k��,6.6,��
2022/06/03,17:10,0.554,0.807,0.523,0.982,0.695,0.337,0.581,0.550,���k��,6.4,��
2022/06/03,17:20,0.554,0.805,0.522,0.984,0.695,0.337,0.580,0.549,���k��,7.1,�L
2022/06/03,17:30,0.553,0.805,0.523,0.984,0.694,0.337,0.582,0.552,���k��,6.2,�L
2022/06/03,17:40,0.554,0.806,0.522,0.985,0.695,0.337,0.582,0.549,���k��,5.0,�L
2022/06/03,17:50,0.554,0.805,0.523,0.985,0.694,0.337,0.582,0.549,���k��,2.9,�L
2022/06/03,18:00,0.553,0.807,0.522,0.984,0.693,0.338,0.581,0.549,���k��,2.6,��
2022/06/03,18:10,0.554,0.808,0.523,0.987,0.694,0.339,0.580,0.550,�k��,1.2,��
2022/06/03,18:20,0.555,0.809,0.524,0.987,0.695,0.339,0.583,0.550,�k�k��,0.6,��
2022/06/03,18:30,0.557,0.808,0.524,0.987,0.696,0.338,0.582,0.551,���쐼,0.9,��
2022/06/03,18:40,0.557,0.811,0.525,0.985,0.696,0.338,0.583,0.552,���쐼,1.5,��
2022/06/03,18:50,0.556,0.810,0.525,0.988,0.695,0.341,0.583,0.552,��,1.2,��
2022/06/03,19:00,0.556,0.811,0.524,0.986,0.695,0.339,0.583,0.552,���쐼,1.2,��
2022/06/03,19:10,0.556,0.809,0.525,0.987,0.698,0.339,0.584,0.552,�k��,0.8,��
2022/06/03,19:20,0.557,0.810,0.524,0.986,0.697,0.338,0.584,0.552,�k�k��,0.6,��
2022/06/03,19:30,0.556,0.810,0.524,0.985,0.698,0.339,0.584,0.552,�k,0.9,��
2022/06/03,19:40,0.556,0.811,0.527,0.987,0.698,0.340,0.584,0.554,�k,0.9,��
2022/06/03,19:50,0.556,0.811,0.526,0.985,0.697,0.339,0.585,0.551,�k�k��,1.2,��
2022/06/03,20:00,0.554,0.810,0.526,0.986,0.697,0.340,0.584,0.553,�k�k��,0.9,��
2022/06/03,20:10,0.557,0.810,0.526,0.988,0.698,0.339,0.584,0.554,�k�k��,0.6,��
2022/06/03,20:20,0.555,0.810,0.526,0.985,0.699,0.339,0.585,0.551,�k,3.1,��
2022/06/03,20:30,0.556,0.809,0.527,0.989,0.697,0.339,0.585,0.553,�k,2.6,��
2022/06/03,20:40,0.558,0.811,0.526,0.989,0.697,0.340,0.585,0.552,�k,1.9,��
2022/06/03,20:50,0.556,0.810,0.525,0.988,0.699,0.339,0.583,0.554,�k�k��,1.9,��
2022/06/03,21:00,0.556,0.808,0.525,0.986,0.697,0.339,0.585,0.552,�k�k��,2.3,��
2022/06/03,21:10,0.556,0.810,0.525,0.988,0.699,0.339,0.583,0.553,�k�k��,1.7,��
2022/06/03,21:20,0.557,0.811,0.525,0.986,0.700,0.340,0.586,0.553,�k�k��,1.7,��
2022/06/03,21:30,0.556,0.810,0.525,0.986,0.699,0.340,0.585,0.553,�k�k��,1.7,��
2022/06/03,21:40,0.556,0.810,0.524,0.987,0.698,0.339,0.585,0.552,�k�k��,1.7,��
2022/06/03,21:50,0.556,0.812,0.525,0.986,0.698,0.338,0.584,0.554,�k,1.7,��
2022/06/03,22:00,0.556,0.811,0.525,0.988,0.699,0.340,0.585,0.553,�k,1.1,��
2022/06/03,22:10,0.557,0.810,0.525,0.986,0.699,0.339,0.584,0.551,�k�k��,1.5,��
2022/06/03,22:20,0.559,0.809,0.525,0.988,0.699,0.338,0.586,0.552,�k�k��,2.3,��
2022/06/03,22:30,0.556,0.811,0.525,0.986,0.698,0.340,0.587,0.553,�k�k��,2.2,��
2022/06/03,22:40,0.559,0.810,0.525,0.988,0.699,0.340,0.586,0.553,�k�k��,2.6,��
2022/06/03,22:50,0.557,0.811,0.526,0.987,0.701,0.339,0.586,0.553,�k�k��,3.0,��
2022/06/03,23:00,0.556,0.812,0.526,0.989,0.700,0.339,0.587,0.552,�k�k��,2.3,��
2022/06/03,23:10,0.556,0.810,0.525,0.987,0.701,0.340,0.585,0.553,�k�k��,2.6,��
2022/06/03,23:20,0.558,0.811,0.523,0.988,0.698,0.339,0.586,0.554,�k�k��,2.6,��
2022/06/03,23:30,0.557,0.810,0.524,0.987,0.698,0.340,0.585,0.553,�k�k��,3.3,��
2022/06/03,23:40,0.555,0.810,0.524,0.990,0.700,0.340,0.585,0.550,�k,3.2,��
2022/06/03,23:50,0.557,0.811,0.524,0.988,0.699,0.340,0.585,0.554,�k�k��,2.9,��
